TimeEDT,TemperatureF,Dew PointF,Humidity,Sea Level PressureIn,VisibilityMPH,Wind Direction,Wind SpeedMPH,Gust SpeedMPH,PrecipitationIn,Events,Conditions,WindDirDegrees,DateUTC
12:54 AM,50.0,46.0,86,30.16,6.0,NW,3.5,-,N/A,,Clear,310,2012-10-08 04:54:00
1:54 AM,48.9,46.0,90,30.17,5.0,Calm,Calm,-,N/A,,Clear,0,2012-10-08 05:54:00
2:16 AM,48.2,44.6,87,30.16,1.8,Calm,Calm,-,N/A,,Clear,0,2012-10-08 06:16:00
2:24 AM,48.2,44.6,87,30.16,3.0,Calm,Calm,-,N/A,,Clear,0,2012-10-08 06:24:00
2:54 AM,48.0,45.0,89,30.17,4.0,Calm,Calm,-,N/A,,Partly Cloudy,0,2012-10-08 06:54:00
3:06 AM,48.2,44.6,87,30.16,3.0,NW,3.5,-,N/A,,Mostly Cloudy,310,2012-10-08 07:06:00
3:30 AM,48.2,44.6,87,30.17,4.0,NW,3.5,-,N/A,,Scattered Clouds,320,2012-10-08 07:30:00
3:54 AM,48.0,45.0,89,30.18,6.0,Calm,Calm,-,N/A,,Clear,0,2012-10-08 07:54:00
4:54 AM,48.0,44.1,86,30.19,10.0,North,6.9,-,0.01,,Clear,350,2012-10-08 08:54:00
5:54 AM,46.9,42.1,83,30.22,10.0,North,5.8,-,N/A,,Clear,350,2012-10-08 09:54:00
6:54 AM,45.0,41.0,86,30.23,9.0,North,4.6,-,N/A,,Clear,360,2012-10-08 10:54:00
7:54 AM,46.9,42.1,83,30.26,8.0,Calm,Calm,-,N/A,,Clear,0,2012-10-08 11:54:00
8:54 AM,48.9,43.0,80,30.27,10.0,North,-9999.0,-,N/A,,Clear,0,2012-10-08 12:54:00
9:54 AM,52.0,45.0,77,30.29,10.0,NNE,6.9,-,N/A,,Clear,20,2012-10-08 13:54:00
10:54 AM,53.1,46.0,77,30.28,10.0,NE,5.8,-,N/A,,Mostly Cloudy,40,2012-10-08 14:54:00
11:54 AM,55.0,46.0,72,30.26,10.0,NE,8.1,-,N/A,,Overcast,40,2012-10-08 15:54:00
12:54 PM,55.0,46.0,72,30.25,10.0,NNE,5.8,-,N/A,,Overcast,30,2012-10-08 16:54:00
1:54 PM,55.0,46.0,72,30.25,10.0,North,4.6,-,N/A,,Overcast,350,2012-10-08 17:54:00
2:54 PM,54.0,46.0,75,30.24,10.0,NNE,6.9,-,0.00,,Overcast,30,2012-10-08 18:54:00
3:54 PM,54.0,46.0,75,30.23,10.0,North,5.8,-,0.00,,Overcast,350,2012-10-08 19:54:00
4:54 PM,53.1,46.9,80,30.24,8.0,NNE,4.6,-,0.03,Rain,Light Rain,30,2012-10-08 20:54:00
5:54 PM,52.0,46.9,83,30.21,9.0,NE,8.1,-,0.03,Rain,Light Rain,40,2012-10-08 21:54:00
6:54 PM,52.0,46.9,83,30.22,10.0,NNE,5.8,-,0.00,,Overcast,30,2012-10-08 22:54:00
7:54 PM,53.1,46.9,80,30.19,10.0,North,9.2,-,N/A,,Overcast,10,2012-10-08 23:54:00
8:54 PM,53.1,48.0,83,30.19,10.0,North,5.8,-,N/A,,Overcast,360,2012-10-09 00:54:00
10:54 PM,53.1,48.9,86,30.18,10.0,North,5.8,-,N/A,,Overcast,350,2012-10-09 02:54:00
11:54 PM,54.0,48.9,83,30.16,10.0,North,6.9,-,N/A,,Overcast,350,2012-10-09 03:54:00